Hourly Data Report for May 06, 2020

All times are specified in Local Standard Time (LST). Add 1 hour to adjust for Daylight Saving Time where and when it is observed.

OTTAWA INTL A
ONTARIO
Current Station Operator: NAVCAN

45°19'00.000" N
75°40'00.000" W
114.90 m
6106001
71628
YOW

Download Data

Hourly Data (May 2020)
Hourly Data Report for May 6, 2020
TIME Temp Definition
°C
Dew Point Definition
°C
Rel Hum Definition
%
Wind Dir Definition
10's deg

Wind Spd Definition
km/h
Visibility Definition
km
Stn Press Definition
kPa
Hmdx Definition


Wind Chill Definition


Weather Definition


00:00 4.8 -5.2 48 36 13 24.1 100.07     LegendNANA
01:00 4.2 -5.8 48 36 13 24.1 100.06     Mainly Clear
02:00 3.8 -5.8 50 35 15 24.1 100.06     LegendNANA
03:00 3.4 -5.6 52 35 13 24.1 100.06     LegendNANA
04:00 2.7 -5.6 55 36 13 24.1 100.08     Mostly Cloudy
05:00 2.4 -5.4 56 35 12 24.1 100.09     LegendNANA
06:00 3.7 -4.5 55 35 14 24.1 100.09     LegendNANA
07:00 5.6 -4.3 49 1 13 24.1 100.08     Mostly Cloudy
08:00 7.2 -3.5 47 36 13 24.1 100.08     LegendNANA
09:00 8.6 -3.6 42 3 10 24.1 100.04     LegendNANA
10:00 10.3 -4.4 35 35 6 24.1 100.00     Mostly Cloudy
11:00 10.7 -5.5 31 29 4 24.1 99.96     LegendNANA
12:00 11.1 -6.6 28 34 7 24.1 99.91     LegendNANA
13:00 12.1 -5.7 28 30 18 24.1 99.86     Mostly Cloudy
14:00 12.3 -5.9 28 5 4 24.1 99.78     LegendNANA
15:00 13.4 -4.9 28 13 4 24.1 99.68     LegendNANA
16:00 14.3 -8.5 20 30 11 24.1 99.61     Mostly Cloudy
17:00 14.6 -9.3 18 1 17 24.1 99.60     LegendNANA
18:00 13.7 -9.8 19 35 19 24.1 99.60     LegendNANA
19:00 12.1 -9.5 21 35 20 24.1 99.61     Mainly Clear
20:00 10.7 -8.9 24 35 12 24.1 99.65     LegendNANA
21:00 9.8 -8.6 26 35 13 24.1 99.66     LegendNANA
22:00 8.7 -7.7 31 2 13 24.1 99.61     Mostly Cloudy
23:00 5.7 -5.2 45 27 11 24.1 99.59     LegendNANA

Notes on Data Quality.

Legend

  • E = Estimated
  • M = Missing
  • NA = Not Available*
  • [empty] = Indicates an unobserved value
Date modified: